[[{"header":{"parameterUnit":"m.s-1","parameterCategory":2,"la1":30.2991,"la2":30.254,"lo1":-89.0895,"lo2":-89.0444,"dy":0.0017,"dx":0.0017,"nx":28,"ny":28,"refTime":"2024-02-29T03:00:00:Z","depth":"0","parameterNumber":2,"parameterNumberName":"U-component_of_CURRENTS"},"data":[0,0,0,0,0,0,0,0,0,0,0,0,0,0,0,0,0,0,0,0,0,0,0,0,0,0,0,0,0,0,0,0,0,0,0,0,0,0,0,0,0,0,0,0,0,0,0,0,0,0,0,0,0,0,0,0,0,0,0.2629,0.263,0,0.2648,0.2648,0.2648,0.2616,0.2615,0.2614,0.2614,0.26,0.2601,0.2601,0,0,0,0,0,0,0,0,0,0,0,0,0,0.2569,0.257,0.2629,0.263,0.263,0.2648,0.2648,0.2648,0.2616,0.2615,0.2614,0.2613,0.26,0.26,0.2601,0,0,0,0,0,0,0,0,0,0,0,0,0,0.2589,0.257,0.2629,0.2619,0.2619,0.2648,0.2648,0.2648,0.2616,0.2615,0.2614,0.2613,0.26,0.26,0.2601,0.2626,0,0,0.2602,0.2603,0,0,0,0,0,0,0,0,0.2588,0.2591,0.262,0.262,0.262,0.2632,0.2622,0.264,0.2616,0.2613,0.2614,0.2612,0.2611,0.2611,0.2612,0.2626,0.2625,0.2603,0.2603,0.2603,0.2603,0,0,0,0,0,0,0,0.2586,0.259,0.2633,0.2621,0.2621,0.2615,0.2616,0.2625,0.2615,0.2613,0.2612,0.262,0.261,0.2611,0.2611,0.2625,0.2603,0.2603,0.2603,0.2603,0.2687,0.2688,0,0,0,0,0,0,0.2593,0.2589,0.2632,0.2634,0.2605,0.2618,0.2619,0.2626,0.2615,0.2614,0.2621,0.2619,0.2611,0.2611,0.2611,0.2667,0.2603,0.2604,0.2604,0.2685,0.2687,0.2689,0,0,0,0,0,0,0.2591,0.2597,0.2632,0.2614,0.2619,0.262,0.2628,0.2627,0.2633,0.2622,0.2619,0.263,0.261,0.261,0.2632,0.2665,0.2604,0.2604,0.2682,0.2685,0.2688,0.2763,0,0,0,0,0,0,0.259,0.2596,0.2604,0.2615,0.262,0.2659,0.263,0.2628,0.2641,0.2638,0.2629,0.2626,0.2609,0.2632,0.2633,0.2665,0.2605,0.268,0.2684,0.2687,0.2758,0.2768,0.2776,0,0,0,0,0,0.2587,0.2601,0.2604,0.261,0.2631,0.2661,0.2663,0.2657,0.2643,0.2656,0.2651,0.2626,0.2655,0.2634,0.2635,0.2667,0.2678,0.2683,0.2687,0.2754,0.2766,0.2776,0,0,0,0,0,0,0.2577,0.2601,0.2603,0.2623,0.2648,0.2657,0.267,0.2668,0.2675,0.2671,0.2651,0.2649,0.268,0.2669,0.2646,0.2703,0.2663,0.2668,0.2714,0.2725,0.2734,0.2733,0.2605,0,0,0,0,0,0.2582,0.2598,0.2624,0.2641,0.2657,0.2667,0.2678,0.268,0.2689,0.2689,0.2685,0.2686,0.27,0.2707,0.2712,0.2747,0.2742,0.277,0.2779,0.2787,0.2788,0.2819,0.2831,0.2703,0.2703,0.2703,0,0,0.2581,0.2599,0.2606,0.2641,0.2657,0.2688,0.267,0.2697,0.2722,0.2689,0.2717,0.2717,0.2716,0.2751,0.2765,0.2745,0.2824,0.2792,0.2799,0.2795,0.2824,0.2837,0.2847,0.2706,0.2706,0.2705,0,0,0.2599,0.2609,0.2635,0.2659,0.2696,0.2708,0.2722,0.2745,0.2754,0.2788,0.2772,0.2793,0.281,0.2819,0.2825,0.2892,0.287,0.2897,0.2944,0.2975,0.2986,0.2995,0.3016,0.3026,0.2903,0.2904,0.2904,0,0.2602,0.2633,0.2648,0.2683,0.2704,0.2721,0.2756,0.2778,0.2804,0.2817,0.2806,0.2845,0.2843,0.289,0.2914,0.2912,0.2922,0.29,0.2987,0.2995,0.3003,0.3023,0.3033,0.2908,0.2907,0.2907,0.2906,0,0.2643,0.2668,0.2688,0.2736,0.276,0.2795,0.2829,0.2856,0.2868,0.2885,0.2931,0.2938,0.2957,0.2971,0.2963,0.3026,0.3012,0.2993,0.2956,0.3021,0.3037,0.3047,0.2914,0.2912,0.2911,0.291,0,0,0.2662,0.2707,0.2717,0.2728,0.2789,0.2805,0.2864,0.2912,0.2935,0.2975,0.3011,0.3052,0.3052,0.306,0.3061,0.3092,0.3163,0.3073,0.3073,0.309,0.3232,0.3244,0.3255,0.3161,0.3163,0.3164,0.3225,0,0.2697,0.2742,0.277,0.2812,0.2833,0.2866,0.2912,0.2953,0.2985,0.3025,0.3061,0.3092,0.309,0.31,0.314,0.3154,0.319,0.3148,0.317,0.3171,0.317,0.3267,0.3257,0.3312,0.3234,0.3235,0.3236,0,0.2747,0.2759,0.2795,0.2825,0.284,0.2868,0.2917,0.2962,0.3032,0.3058,0.3111,0.3133,0.3202,0.3178,0.3257,0.3232,0.3242,0.325,0.3252,0.324,0.3201,0.3233,0.3332,0.3297,0.325,0.3249,0.3248,0,0.2735,0.2785,0.2798,0.2811,0.2852,0.287,0.2901,0.2964,0.3001,0.3076,0.3119,0.3187,0.3234,0.3269,0.3311,0.3285,0.3387,0.3345,0.3366,0.3366,0.3349,0.3345,0.341,0.3396,0.3396,0.3396,0.3395,0,0.2765,0.278,0.2782,0.2783,0.2797,0.284,0.288,0.2918,0.2994,0.3041,0.3131,0.3191,0.3261,0.3333,0.3342,0.3407,0.3419,0.3398,0.3396,0.3377,0.3374,0.3333,0.3288,0.3398,0.3397,0.3397,0.3397,0,0.2768,0.2776,0.2773,0.2784,0.2787,0.2791,0.2854,0.2874,0.2972,0.3041,0.3073,0.3211,0.3317,0.3388,0.345,0.3457,0.3424,0.3503,0.3478,0.3472,0.3443,0.3401,0.3258,0.3155,0.3535,0.3536,0.3537,0,0.2781,0.2777,0.2747,0.2731,0.2734,0.2756,0.2764,0.2839,0.2867,0.3046,0.3067,0.3227,0.3334,0.3477,0.3526,0.3583,0.3453,0.357,0.3516,0.347,0.3422,0.3219,0.3126,0.3524,0.3525,0.3525,0.3526,0,0.2793,0.2769,0.2758,0.2714,0.2692,0.2679,0.2702,0.2726,0.2827,0.2924,0.3056,0.3173,0.3378,0.3474,0.3585,0.3602,0.3442,0.3579,0.3544,0.3443,0.3212,0.3103,0.3443,0.353,0.3529,0.3529,0.3529,0.3529,0.2798,0.2783,0.2749,0.2704,0.2672,0.2613,0.2601,0.2644,0.2706,0.284,0.2973,0.3146,0.3393,0.3581,0.3554,0.3593,0.3465,0.3552,0.3514,0.3316,0.3192,0.3544,0.3617,0.3617,0.3617,0.3617,0.3617,0,0.2803,0.2783,0.2746,0.2673,0.2608,0.2592,0.2565,0.2557,0.2609,0.2762,0.2896,0.3177,0.3348,0.3492,0.3658,0.3575,0.3352,0.3495,0.3233,0.3148,0.3516,0.3498,0.3533,0.3533,0.3533,0.3533,0.3533,0.3533,0.2804,0.2771,0.2734,0.2623,0.257,0.2465,0.2432,0.2432,0.252,0.2674,0.2832,0.2987,0.3325,0.3611,0.3638,0.3555,0.3262,0.3157,0.3044,0.3384,0.3385,0.3387,0.3362,0.3368,0.3368,0.2587,0.2582,0.2578]},{"header":{"parameterUnit":"m.s-1","parameterCategory":2,"la1":30.2991,"la2":30.254,"lo1":-89.0895,"lo2":-89.0444,"dy":0.0017,"dx":0.0017,"nx":28,"ny":28,"refTime":"2024-02-29T03:00:00:Z","depth":"0","parameterNumber":3,"parameterNumberName":"V-component_of_CURRENTS"},"data":[0,0,0,0,0,0,0,0,0,0,0,0,0,0,0,0,0,0,0,0,0,0,0,0,0,0,0,0,0,0,0,0,0,0,0,0,0,0,0,0,0,0,0,0,0,0,0,0,0,0,0,0,0,0,0,0,0,0,-0.0098,-0.0099,0,-0.0179,-0.0181,-0.0182,-0.0239,-0.0239,-0.0239,-0.024,-0.0369,-0.0373,-0.0376,0,0,0,0,0,0,0,0,0,0,0,0,0,-0.0059,-0.0059,-0.0098,-0.0099,-0.0099,-0.0179,-0.0181,-0.0182,-0.0239,-0.0239,-0.0239,-0.024,-0.0368,-0.0372,-0.0376,0,0,0,0,0,0,0,0,0,0,0,0,0,-0.0104,-0.0059,-0.0098,-0.0135,-0.0139,-0.0179,-0.0181,-0.0182,-0.0239,-0.0239,-0.024,-0.024,-0.0367,-0.0372,-0.0377,-0.0402,0,0,-0.0392,-0.0394,0,0,0,0,0,0,0,0,-0.0102,-0.0106,-0.0129,-0.0133,-0.0137,-0.0197,-0.0215,-0.0257,-0.0239,-0.0204,-0.024,-0.024,-0.0314,-0.0323,-0.0342,-0.0408,-0.0414,-0.0392,-0.0395,-0.0397,-0.0399,0,0,0,0,0,0,0,-0.0098,-0.0103,-0.0133,-0.013,-0.0135,-0.0171,-0.0177,-0.0223,-0.026,-0.0207,-0.0211,-0.0215,-0.0317,-0.0337,-0.0345,-0.0416,-0.0392,-0.0397,-0.04,-0.0401,-0.0515,-0.0515,0,0,0,0,0,0,-0.0078,-0.01,-0.0131,-0.0135,-0.0116,-0.0171,-0.0178,-0.018,-0.0259,-0.0269,-0.0215,-0.0217,-0.0328,-0.0339,-0.035,-0.0383,-0.0397,-0.0402,-0.0405,-0.0515,-0.0515,-0.0515,0,0,0,0,0,0,-0.0077,-0.008,-0.0127,-0.0117,-0.0126,-0.017,-0.0172,-0.0181,-0.0199,-0.0263,-0.0276,-0.0223,-0.0329,-0.0343,-0.0386,-0.0388,-0.0404,-0.0409,-0.0515,-0.0515,-0.0515,-0.045,0,0,0,0,0,0,-0.0076,-0.0079,-0.0075,-0.0116,-0.0125,-0.0146,-0.0172,-0.0182,-0.02,-0.0204,-0.0274,-0.0287,-0.033,-0.0378,-0.0391,-0.0395,-0.0413,-0.0515,-0.0515,-0.0515,-0.0452,-0.0448,-0.0444,0,0,0,0,0,-0.0074,-0.0065,-0.0074,-0.0078,-0.0117,-0.0146,-0.0154,-0.019,-0.02,-0.0207,-0.0251,-0.0284,-0.0388,-0.0382,-0.0397,-0.0403,-0.0515,-0.0515,-0.0515,-0.0454,-0.0449,-0.0444,0,0,0,0,0,0,-0.0049,-0.0071,-0.0082,-0.0081,-0.0108,-0.0154,-0.0161,-0.0183,-0.0224,-0.0227,-0.0286,-0.0302,-0.0342,-0.038,-0.0372,-0.0436,-0.0457,-0.046,-0.0405,-0.0401,-0.0397,-0.0365,-0.0417,0,0,0,0,0,-0.0038,-0.0037,-0.0068,-0.0069,-0.0077,-0.0117,-0.0132,-0.0155,-0.0194,-0.0212,-0.0257,-0.0308,-0.0355,-0.0381,-0.0428,-0.0463,-0.0479,-0.0476,-0.0472,-0.0468,-0.0452,-0.0483,-0.048,-0.0515,-0.0515,-0.0515,0,0,-0.003,-0.004,-0.0041,-0.0063,-0.0086,-0.0091,-0.0128,-0.0145,-0.0154,-0.022,-0.0246,-0.0296,-0.036,-0.0399,-0.042,-0.0431,-0.0465,-0.0469,-0.0465,-0.0451,-0.0483,-0.0479,-0.0476,-0.0515,-0.0515,-0.0515,0,0,-0.0006,-0.0019,-0.0007,-0.0023,-0.0046,-0.0072,-0.0071,-0.0112,-0.0135,-0.0166,-0.0215,-0.0258,-0.033,-0.0373,-0.0406,-0.0407,-0.0442,-0.0428,-0.0385,-0.0415,-0.0412,-0.041,-0.0411,-0.0409,-0.0427,-0.0427,-0.0427,0,0.0006,0.0021,-0.0011,-0.0002,-0.0004,-0.0056,-0.0043,-0.0077,-0.0128,-0.0139,-0.0164,-0.0256,-0.0315,-0.0357,-0.0362,-0.0397,-0.041,-0.0397,-0.0408,-0.0406,-0.0405,-0.0407,-0.0406,-0.0424,-0.0424,-0.0425,-0.0425,0,0.0041,0.0053,0.0058,0.0056,0.0043,0.0045,0.0004,-0.0013,-0.0044,-0.0079,-0.0122,-0.02,-0.0247,-0.0284,-0.0328,-0.035,-0.036,-0.0397,-0.0414,-0.0397,-0.0401,-0.04,-0.042,-0.0421,-0.0422,-0.0422,0,0,0.0071,0.0084,0.0086,0.0106,0.008,0.0077,0.0064,0.0042,0.0047,-0.0021,-0.0016,-0.0118,-0.0154,-0.0191,-0.0255,-0.0292,-0.03,-0.0335,-0.0338,-0.0324,-0.0342,-0.0346,-0.0347,-0.0341,-0.0341,-0.0341,-0.0343,0,0.0112,0.0157,0.0143,0.0178,0.0201,0.0161,0.0161,0.013,0.0091,0.0078,-0.0007,-0.0035,-0.0122,-0.0137,-0.019,-0.0272,-0.0299,-0.0294,-0.0372,-0.0373,-0.037,-0.0347,-0.0309,-0.0308,-0.0343,-0.0343,-0.0343,0,0.0155,0.0184,0.0234,0.0265,0.0271,0.0276,0.028,0.0275,0.023,0.0199,0.0147,0.0089,0.0025,-0.0046,-0.0166,-0.0159,-0.0237,-0.0304,-0.0306,-0.033,-0.0377,-0.0336,-0.0307,-0.0498,-0.0343,-0.0343,-0.0343,0,0.0209,0.0248,0.0298,0.0305,0.0323,0.0337,0.0343,0.0314,0.0331,0.0285,0.03,0.0195,0.0173,0.0047,-0.0097,-0.0127,-0.0216,-0.0276,-0.0347,-0.0347,-0.0339,-0.0339,-0.0493,-0.0344,-0.0344,-0.0344,-0.0344,0,0.0262,0.0302,0.0329,0.0355,0.0425,0.0406,0.0464,0.0444,0.0444,0.049,0.0377,0.0397,0.0195,0.0117,-0.0039,-0.0179,-0.0171,-0.0321,-0.0348,-0.0315,-0.0312,-0.0499,-0.0604,-0.0344,-0.0344,-0.0344,-0.0344,0,0.0312,0.0328,0.0394,0.0432,0.0454,0.0501,0.0563,0.06,0.0585,0.0647,0.0649,0.0561,0.0457,0.0264,0.0075,-0.0078,-0.0326,-0.0281,-0.0213,-0.0234,-0.0493,-0.0594,-0.0742,-0.0838,-0.0356,-0.0356,-0.0356,0,0.0345,0.0385,0.0459,0.0514,0.0535,0.0607,0.0663,0.0667,0.0716,0.076,0.0802,0.0733,0.0708,0.0431,0.0135,-0.0114,-0.0307,-0.0247,-0.0312,-0.0488,-0.0621,-0.0697,-0.0774,-0.0268,-0.0267,-0.0267,-0.0266,0,0.042,0.0442,0.0499,0.0612,0.0681,0.0766,0.0844,0.0913,0.0942,0.1012,0.1091,0.109,0.0822,0.0573,0.0207,0.0023,-0.0375,-0.0245,-0.0452,-0.0579,-0.0644,-0.0755,-0.0275,-0.0262,-0.0262,-0.0262,-0.0263,-0.0263,0.0486,0.0547,0.0631,0.0735,0.0817,0.0925,0.1025,0.1121,0.1252,0.1405,0.1345,0.1415,0.1008,0.0512,0.0189,-0.0337,-0.0364,-0.0489,-0.0595,-0.0654,-0.0761,-0.0256,-0.027,-0.027,-0.027,-0.0271,-0.0271,0,0.0599,0.0664,0.0759,0.0886,0.0985,0.1003,0.1156,0.1279,0.148,0.1627,0.1727,0.1603,0.1098,0.0561,-0.0177,-0.0604,-0.0771,-0.0828,-0.0943,-0.1007,-0.0571,-0.0583,-0.0634,-0.0634,-0.0634,-0.0634,-0.0634,-0.0633,0.0672,0.0794,0.0837,0.1022,0.1102,0.1257,0.1359,0.1556,0.1715,0.197,0.206,0.2056,0.1648,0.0248,-0.0729,-0.0962,-0.1273,-0.132,-0.151,-0.1233,-0.121,-0.1189,-0.1228,-0.1413,-0.1414,-0.1888,-0.1893,-0.1897]}],[{"header":{"parameterUnit":"m.s-1","parameterCategory":2,"la1":30.2991,"la2":30.254,"lo1":-89.0895,"lo2":-89.0444,"dy":0.0017,"dx":0.0017,"nx":28,"ny":28,"refTime":"2024-02-29T03:00:00:Z","depth":"2","parameterNumber":2,"parameterNumberName":"U-component_of_CURRENTS"},"data":[0,0,0,0,0,0,0,0,0,0,0,0,0,0,0,0,0,0,0,0,0,0,0,0,0,0,0,0,0,0,0,0,0,0,0,0,0,0,0,0,0,0,0,0,0,0,0,0,0,0,0,0,0,0,0,0,0,0,0.196,0.1961,0,0.1993,0.1993,0.1992,0.199,0.199,0.199,0.199,0.2021,0.2022,0.2023,0,0,0,0,0,0,0,0,0,0,0,0,0,0.1892,0.1893,0.196,0.1961,0.1962,0.1993,0.1993,0.1992,0.199,0.199,0.199,0.1991,0.2021,0.2022,0.2023,0,0,0,0,0,0,0,0,0,0,0,0,0,0.1916,0.1893,0.196,0.197,0.1971,0.1993,0.1993,0.1992,0.199,0.199,0.199,0.1991,0.2021,0.2022,0.2023,0.2026,0,0,0.2026,0.2027,0,0,0,0,0,0,0,0,0.1915,0.1918,0.1967,0.1969,0.1971,0.1993,0.198,0.2006,0.199,0.1976,0.199,0.1991,0.2016,0.2017,0.2014,0.2027,0.2029,0.2026,0.2027,0.2027,0.2028,0,0,0,0,0,0,0,0.1913,0.1917,0.1966,0.1968,0.1971,0.1971,0.1974,0.1984,0.1989,0.1977,0.1979,0.1993,0.2016,0.2013,0.2015,0.2029,0.2026,0.2027,0.2028,0.2028,0.2129,0.2131,0,0,0,0,0,0,0.1923,0.1915,0.1966,0.1968,0.195,0.1973,0.1976,0.1981,0.1989,0.1993,0.1993,0.1993,0.2011,0.2013,0.2016,0.2083,0.2027,0.2028,0.2029,0.2127,0.213,0.2132,0,0,0,0,0,0,0.1921,0.1926,0.1964,0.1948,0.1954,0.1975,0.198,0.1981,0.1986,0.2002,0.2004,0.1997,0.2011,0.2014,0.2055,0.2082,0.2029,0.203,0.2125,0.2128,0.2131,0.2177,0,0,0,0,0,0,0.1918,0.1925,0.1936,0.1948,0.1955,0.1994,0.198,0.1982,0.1997,0.1997,0.2007,0.2009,0.2011,0.2054,0.2056,0.2082,0.2031,0.2122,0.2126,0.213,0.2173,0.2181,0.2189,0,0,0,0,0,0.1916,0.1928,0.1936,0.1943,0.1968,0.1996,0.1999,0.2009,0.1997,0.201,0.2026,0.2009,0.208,0.2056,0.2059,0.2086,0.212,0.2125,0.213,0.217,0.218,0.2188,0,0,0,0,0,0,0.19,0.193,0.1939,0.1958,0.1986,0.1998,0.201,0.2013,0.2031,0.2038,0.2033,0.2038,0.2084,0.2083,0.2057,0.213,0.2098,0.2103,0.2128,0.2137,0.2145,0.2157,0.2031,0,0,0,0,0,0.1904,0.1926,0.1952,0.1973,0.1982,0.1994,0.2007,0.2024,0.2042,0.2048,0.206,0.208,0.2103,0.2119,0.214,0.2176,0.2181,0.2198,0.2206,0.2212,0.2226,0.2253,0.2264,0.2147,0.2147,0.2147,0,0,0.1907,0.1928,0.1941,0.1974,0.1985,0.2011,0.2,0.2033,0.2063,0.2051,0.2091,0.2106,0.2119,0.2167,0.2186,0.217,0.2251,0.2218,0.2223,0.2234,0.2259,0.227,0.228,0.215,0.215,0.2149,0,0,0.1925,0.1935,0.196,0.1985,0.2027,0.2036,0.2047,0.2075,0.2092,0.2139,0.2141,0.218,0.2207,0.2232,0.2241,0.2306,0.229,0.2311,0.2359,0.2385,0.2395,0.2403,0.2432,0.2442,0.2315,0.2315,0.2315,0,0.1933,0.1956,0.1974,0.2005,0.2028,0.2044,0.2075,0.2097,0.2144,0.2169,0.2164,0.2227,0.2239,0.2292,0.2324,0.2322,0.2335,0.2316,0.2394,0.2402,0.241,0.2437,0.2448,0.2318,0.2318,0.2317,0.2317,0,0.1967,0.1991,0.2003,0.2046,0.2076,0.2105,0.2143,0.2177,0.2194,0.2225,0.2287,0.2312,0.2349,0.2361,0.2364,0.243,0.2422,0.2396,0.2364,0.2424,0.2449,0.246,0.2322,0.2321,0.232,0.232,0,0,0.1981,0.2017,0.2025,0.204,0.2099,0.212,0.2178,0.2228,0.2258,0.2315,0.2359,0.2417,0.2433,0.2448,0.2457,0.249,0.256,0.2476,0.2476,0.2495,0.2627,0.2631,0.2643,0.2544,0.2546,0.2548,0.2625,0,0.2002,0.2034,0.2066,0.2108,0.2123,0.2166,0.2211,0.2274,0.2314,0.2366,0.2414,0.2461,0.2463,0.2486,0.2524,0.2553,0.259,0.2542,0.2576,0.2577,0.2564,0.2656,0.2473,0.2528,0.2635,0.2637,0.2638,0,0.2019,0.2047,0.2075,0.2118,0.213,0.2166,0.2228,0.2282,0.2369,0.2406,0.2472,0.2506,0.2588,0.2562,0.2652,0.2623,0.2639,0.2653,0.2655,0.2651,0.2601,0.2486,0.2543,0.2655,0.2654,0.2653,0.2652,0,0.199,0.2042,0.2052,0.2073,0.2139,0.2169,0.2209,0.2295,0.2351,0.2439,0.2494,0.2567,0.2628,0.266,0.272,0.2687,0.2808,0.2751,0.277,0.2769,0.2619,0.2603,0.2808,0.2808,0.2808,0.2808,0.2807,0,0.1976,0.1994,0.2033,0.2051,0.2083,0.2149,0.2204,0.2254,0.2359,0.2431,0.2515,0.2586,0.2659,0.274,0.2752,0.2821,0.2835,0.281,0.2802,0.2633,0.2618,0.2723,0.2712,0.281,0.281,0.2809,0.2809,0,0.1933,0.1955,0.1981,0.2046,0.2065,0.2094,0.2195,0.2236,0.2349,0.2449,0.2489,0.2636,0.2745,0.2815,0.2886,0.288,0.2919,0.2929,0.274,0.271,0.2848,0.2838,0.295,0.2952,0.2952,0.2953,0.2954,0,0.1908,0.19,0.1961,0.1976,0.2004,0.206,0.2097,0.221,0.2269,0.2471,0.2513,0.2682,0.278,0.2921,0.2941,0.2985,0.298,0.2819,0.2724,0.2888,0.2869,0.2858,0.2848,0.2538,0.2535,0.2533,0.2531,0,0.1854,0.1862,0.1893,0.1932,0.1962,0.1999,0.2067,0.2114,0.2262,0.237,0.2516,0.2625,0.2805,0.2802,0.2896,0.2875,0.2797,0.2776,0.2999,0.2543,0.2509,0.2487,0.2488,0.251,0.2513,0.2514,0.2515,0.2516,0.1828,0.1815,0.1846,0.1876,0.1903,0.1927,0.1941,0.2033,0.2131,0.2274,0.242,0.2533,0.2628,0.2702,0.2644,0.2605,0.2775,0.2635,0.2637,0.2643,0.2595,0.2566,0.2568,0.2571,0.2573,0.2574,0.2576,0,0.1783,0.1777,0.1784,0.1813,0.1799,0.1859,0.1907,0.1911,0.1982,0.2162,0.2282,0.2206,0.2282,0.2354,0.2295,0.2322,0.2238,0.2204,0.207,0.2097,0.212,0.2037,0.1866,0.1863,0.186,0.1857,0,0,0.1767,0.1745,0.1727,0.1691,0.1719,0.1706,0.1719,0.1736,0.1831,0.1892,0.1973,0.2211,0.2346,0.2078,0.2066,0.1957,0.1992,0.1883,0.2472,0.2346,0.2363,0.2414,0.2325,0,0,0,0,0]},{"header":{"parameterUnit":"m.s-1","parameterCategory":2,"la1":30.2991,"la2":30.254,"lo1":-89.0895,"lo2":-89.0444,"dy":0.0017,"dx":0.0017,"nx":28,"ny":28,"refTime":"2024-02-29T03:00:00:Z","depth":"2","parameterNumber":3,"parameterNumberName":"V-component_of_CURRENTS"},"data":[0,0,0,0,0,0,0,0,0,0,0,0,0,0,0,0,0,0,0,0,0,0,0,0,0,0,0,0,0,0,0,0,0,0,0,0,0,0,0,0,0,0,0,0,0,0,0,0,0,0,0,0,0,0,0,0,0,0,0.0021,0.002,0,-0.0036,-0.0037,-0.0038,-0.0085,-0.0085,-0.0086,-0.0086,-0.0191,-0.0193,-0.0196,0,0,0,0,0,0,0,0,0,0,0,0,0,0.0036,0.0036,0.0021,0.002,0.002,-0.0036,-0.0037,-0.0038,-0.0085,-0.0085,-0.0086,-0.0086,-0.019,-0.0193,-0.0196,0,0,0,0,0,0,0,0,0,0,0,0,0,0.0008,0.0036,0.0021,-0.001,-0.0013,-0.0036,-0.0037,-0.0038,-0.0085,-0.0085,-0.0086,-0.0087,-0.0189,-0.0193,-0.0196,-0.0206,0,0,-0.0207,-0.0209,0,0,0,0,0,0,0,0,0.001,0.0008,-0.0005,-0.0008,-0.0012,-0.0053,-0.007,-0.0096,-0.0085,-0.0058,-0.0086,-0.0087,-0.0149,-0.0155,-0.0165,-0.0211,-0.0215,-0.0208,-0.021,-0.0211,-0.0212,0,0,0,0,0,0,0,0.0012,0.001,-0.0002,-0.0005,-0.001,-0.0039,-0.0044,-0.0076,-0.0101,-0.0061,-0.0064,-0.0069,-0.0151,-0.0162,-0.0168,-0.0217,-0.0208,-0.0211,-0.0213,-0.0214,-0.03,-0.03,0,0,0,0,0,0,0.0024,0.0012,-0.0001,-0.0004,-0.0001,-0.0039,-0.0044,-0.004,-0.0099,-0.0108,-0.0068,-0.0071,-0.0155,-0.0164,-0.0172,-0.0194,-0.0211,-0.0215,-0.0217,-0.03,-0.03,-0.03,0,0,0,0,0,0,0.0025,0.0024,0.0002,0.0002,-0.0002,-0.0038,-0.0034,-0.0041,-0.0052,-0.0105,-0.0115,-0.0072,-0.0156,-0.0167,-0.0203,-0.0198,-0.0216,-0.022,-0.03,-0.03,-0.03,-0.0232,0,0,0,0,0,0,0.0026,0.0025,0.0029,0.0004,-0.0002,-0.0008,-0.0033,-0.0041,-0.0053,-0.0057,-0.0111,-0.0122,-0.0157,-0.0198,-0.0207,-0.0203,-0.0222,-0.03,-0.03,-0.03,-0.0234,-0.023,-0.0227,0,0,0,0,0,0.0027,0.0044,0.003,0.0028,0.0007,-0.0007,-0.0013,-0.0042,-0.0053,-0.0054,-0.0094,-0.012,-0.0206,-0.02,-0.0211,-0.0208,-0.03,-0.03,-0.03,-0.0236,-0.0231,-0.0227,0,0,0,0,0,0,0.0052,0.004,0.0024,0.0036,0.0015,-0.0015,-0.0015,-0.0035,-0.0066,-0.0071,-0.0121,-0.0134,-0.0164,-0.0197,-0.019,-0.0236,-0.0257,-0.0259,-0.0205,-0.02,-0.0197,-0.0179,-0.0225,0,0,0,0,0,0.0061,0.0068,0.0045,0.0051,0.0048,0.0017,0.0008,-0.0013,-0.0042,-0.0056,-0.0095,-0.0138,-0.0173,-0.0194,-0.0231,-0.0254,-0.0281,-0.0261,-0.0257,-0.0254,-0.0248,-0.0283,-0.0281,-0.0301,-0.0301,-0.0301,0,0,0.0068,0.0064,0.0066,0.0056,0.0041,0.0045,0.001,0.0002,-0.0002,-0.0063,-0.008,-0.0124,-0.0176,-0.0204,-0.022,-0.0231,-0.0261,-0.0254,-0.025,-0.0247,-0.0283,-0.0281,-0.0279,-0.0301,-0.0301,-0.0301,0,0,0.0099,0.009,0.011,0.0099,0.0083,0.0066,0.0067,0.0038,0.0019,-0.0006,-0.005,-0.009,-0.0142,-0.018,-0.0205,-0.0202,-0.0238,-0.0215,-0.0182,-0.0215,-0.0214,-0.0212,-0.0235,-0.0236,-0.0214,-0.0213,-0.0213,0,0.0105,0.0132,0.011,0.0126,0.0124,0.0082,0.0099,0.0076,0.0033,0.0019,-0.0003,-0.0082,-0.013,-0.0161,-0.0166,-0.0191,-0.0213,-0.0191,-0.0208,-0.0208,-0.0208,-0.0231,-0.0234,-0.021,-0.0211,-0.0211,-0.0211,0,0.0153,0.0168,0.0182,0.0189,0.0181,0.0189,0.0158,0.0143,0.0114,0.0082,0.0042,-0.0024,-0.007,-0.0094,-0.0132,-0.0156,-0.0171,-0.0196,-0.0214,-0.0201,-0.0227,-0.0231,-0.0205,-0.0207,-0.0208,-0.0208,0,0,0.0166,0.0211,0.0211,0.023,0.0217,0.0218,0.0213,0.0195,0.0195,0.0137,0.0131,0.0053,0.0012,-0.0019,-0.0072,-0.011,-0.0134,-0.015,-0.0153,-0.0161,-0.02,-0.0211,-0.0217,-0.016,-0.0161,-0.0161,-0.0214,0,0.0205,0.0275,0.0271,0.0308,0.0336,0.0299,0.0301,0.0271,0.0236,0.0216,0.0141,0.011,0.0043,0.0023,-0.0025,-0.0108,-0.0142,-0.0117,-0.0221,-0.0224,-0.0227,-0.0221,-0.0192,-0.0237,-0.0218,-0.0219,-0.0219,0,0.0245,0.0286,0.0354,0.0383,0.039,0.0395,0.039,0.0386,0.0339,0.0309,0.0259,0.0203,0.0136,0.0083,-0.0043,-0.0023,-0.0103,-0.0169,-0.0173,-0.0209,-0.0243,-0.025,-0.0244,-0.0226,-0.0225,-0.0225,-0.0224,0,0.028,0.0335,0.0401,0.0409,0.0435,0.0441,0.0443,0.041,0.042,0.037,0.0372,0.0275,0.0241,0.0125,-0.0017,-0.0029,-0.0149,-0.0183,-0.0265,-0.0266,-0.0276,-0.0277,-0.0262,-0.0262,-0.0262,-0.0262,-0.0262,0,0.0327,0.0366,0.0424,0.0452,0.0506,0.0491,0.0529,0.051,0.05,0.0527,0.0427,0.043,0.025,0.016,0.0019,-0.0129,-0.0122,-0.0255,-0.0282,-0.0251,-0.025,-0.0271,-0.0272,-0.0264,-0.0264,-0.0263,-0.0263,0,0.0352,0.0401,0.0465,0.0512,0.053,0.0561,0.0604,0.0628,0.0607,0.0644,0.0638,0.0547,0.0427,0.0249,0.006,-0.0069,-0.022,-0.0273,-0.022,-0.024,-0.0323,-0.0319,-0.0369,-0.037,-0.037,-0.0371,-0.0372,0,0.0375,0.0424,0.0513,0.0559,0.0581,0.0634,0.0674,0.0678,0.0713,0.0725,0.0752,0.0655,0.0605,0.0323,0.0062,-0.0177,-0.0211,-0.03,-0.0327,-0.0313,-0.0334,-0.033,-0.0325,-0.031,-0.031,-0.031,-0.031,0,0.04,0.0441,0.05,0.0613,0.0671,0.0749,0.0808,0.0862,0.0882,0.0918,0.0953,0.092,0.0654,0.0407,0.0066,-0.0095,-0.0265,-0.0307,-0.0308,-0.0286,-0.0262,-0.0282,-0.0278,-0.031,-0.031,-0.031,-0.031,-0.031,0.0405,0.0462,0.056,0.0663,0.0745,0.0851,0.0927,0.1,0.1089,0.1163,0.1119,0.1088,0.0788,0.0363,0.0051,-0.0272,-0.0258,-0.0357,-0.0356,-0.0354,-0.0337,-0.0315,-0.0369,-0.0369,-0.0369,-0.037,-0.037,0,0.0411,0.0499,0.0603,0.0732,0.083,0.0875,0.1009,0.1087,0.1213,0.129,0.1326,0.1072,0.0779,0.0435,-0.0047,-0.0334,-0.0357,-0.0412,-0.0381,-0.0378,-0.0376,-0.0359,-0.0398,-0.0399,-0.04,-0.0401,0,0,0.0422,0.0522,0.06,0.0777,0.0874,0.1018,0.1109,0.123,0.1323,0.1406,0.1407,0.1348,0.0917,0.057,0.0162,-0.0118,-0.0173,-0.0165,-0.0108,-0.0019,-0.0014,-0.0309,-0.0275,0,0,0,0,0]}],[{"header":{"parameterUnit":"m.s-1","parameterCategory":2,"la1":30.2991,"la2":30.254,"lo1":-89.0895,"lo2":-89.0444,"dy":0.0017,"dx":0.0017,"nx":28,"ny":28,"refTime":"2024-02-29T03:00:00:Z","depth":"4","parameterNumber":2,"parameterNumberName":"U-component_of_CURRENTS"},"data":[0,0,0,0,0,0,0,0,0,0,0,0,0,0,0,0,0,0,0,0,0,0,0,0,0,0,0,0,0,0,0,0,0,0,0,0,0,0,0,0,0,0,0,0,0,0,0,0,0,0,0,0,0,0,0,0,0,0,0.1169,0.117,0,0.1254,0.1255,0.1256,0.1308,0.1308,0.1309,0.1309,0.1383,0.1384,0.1385,0,0,0,0,0,0,0,0,0,0,0,0,0,0.1051,0.1053,0.1169,0.117,0.1171,0.1254,0.1255,0.1256,0.1308,0.1308,0.1309,0.131,0.1382,0.1384,0.1386,0,0,0,0,0,0,0,0,0,0,0,0,0,0.1113,0.1053,0.1169,0.1209,0.1214,0.1254,0.1255,0.1256,0.1308,0.1308,0.1309,0.131,0.1381,0.1384,0.1386,0.1385,0,0,0.1393,0.1394,0,0,0,0,0,0,0,0,0.111,0.1117,0.1202,0.1206,0.1212,0.1273,0.1241,0.1299,0.1307,0.1269,0.1309,0.131,0.1346,0.1351,0.1362,0.1388,0.1391,0.1393,0.1394,0.1395,0.1396,0,0,0,0,0,0,0,0.1105,0.1114,0.12,0.1203,0.1209,0.1223,0.1233,0.1252,0.13,0.1273,0.1277,0.1291,0.1348,0.136,0.1364,0.1392,0.1393,0.1395,0.1396,0.1397,0.1508,0.1509,0,0,0,0,0,0,0.1099,0.111,0.1197,0.1203,0.1164,0.1225,0.1235,0.1251,0.13,0.131,0.129,0.1293,0.1356,0.1362,0.1367,0.1446,0.1395,0.1397,0.1399,0.1506,0.1508,0.151,0,0,0,0,0,0,0.1097,0.1106,0.1194,0.116,0.1173,0.1227,0.1243,0.1252,0.1292,0.1314,0.1323,0.1324,0.1357,0.1364,0.1412,0.1446,0.1398,0.14,0.1504,0.1507,0.1509,0.1553,0,0,0,0,0,0,0.1093,0.1105,0.1126,0.116,0.1174,0.1233,0.1243,0.1253,0.1298,0.1303,0.1345,0.1351,0.1358,0.1409,0.1415,0.1448,0.1402,0.1502,0.1505,0.1508,0.155,0.1557,0.1563,0,0,0,0,0,0.1088,0.1106,0.1126,0.1138,0.1198,0.1234,0.1243,0.1281,0.1299,0.1319,0.1353,0.1352,0.1432,0.1412,0.1418,0.1453,0.1501,0.1504,0.1508,0.1547,0.1555,0.1563,0,0,0,0,0,0,0.1065,0.1114,0.1137,0.117,0.1209,0.1244,0.127,0.1295,0.1338,0.1351,0.137,0.1379,0.1434,0.1438,0.1415,0.1495,0.1467,0.1472,0.1494,0.1503,0.1509,0.1512,0.1404,0,0,0,0,0,0.107,0.1099,0.1144,0.1174,0.1195,0.1238,0.1264,0.1291,0.1328,0.1349,0.1382,0.1417,0.1449,0.1471,0.1497,0.1538,0.1549,0.1566,0.1572,0.1578,0.1586,0.1626,0.1637,0.1522,0.1521,0.1521,0,0,0.1067,0.1101,0.1117,0.1172,0.1205,0.1244,0.1256,0.13,0.134,0.1348,0.1418,0.1442,0.1465,0.1515,0.154,0.1526,0.162,0.1583,0.1587,0.1592,0.1631,0.1642,0.1652,0.1524,0.1523,0.1523,0,0,0.1071,0.111,0.1137,0.1175,0.1234,0.126,0.128,0.1335,0.137,0.143,0.145,0.1495,0.1547,0.1571,0.1588,0.1646,0.1652,0.166,0.1698,0.1737,0.1747,0.1755,0.1794,0.1806,0.1664,0.1664,0.1664,0,0.1067,0.1113,0.1149,0.119,0.1229,0.1272,0.1313,0.1351,0.1419,0.1452,0.1461,0.1555,0.1573,0.1632,0.1657,0.1661,0.1686,0.1663,0.1745,0.1754,0.1762,0.1799,0.1812,0.1666,0.1666,0.1666,0.1666,0,0.1092,0.1141,0.1161,0.1229,0.1271,0.1313,0.1371,0.1422,0.1469,0.1507,0.1587,0.1618,0.1674,0.1688,0.1693,0.1764,0.1766,0.1747,0.1722,0.1776,0.1812,0.1824,0.167,0.1669,0.1668,0.1668,0,0,0.1027,0.1157,0.1165,0.1215,0.13,0.1334,0.1406,0.1477,0.1532,0.1594,0.1664,0.1721,0.1746,0.1767,0.1783,0.1817,0.1897,0.1815,0.1815,0.1848,0.1996,0.1889,0.1892,0.1897,0.1899,0.1901,0.2003,0,0.1034,0.1138,0.1192,0.1274,0.1324,0.1393,0.1456,0.1528,0.1591,0.1667,0.171,0.1781,0.1774,0.1815,0.1849,0.1891,0.193,0.1871,0.1944,0.1946,0.184,0.1902,0.1907,0.2011,0.2014,0.2016,0.2017,0,0.1029,0.1099,0.1203,0.1317,0.1345,0.1401,0.1513,0.1577,0.1679,0.1733,0.1804,0.1844,0.1924,0.1899,0.1998,0.1967,0.1992,0.2009,0.2013,0.1904,0.186,0.1945,0.2039,0.2037,0.2036,0.2034,0.2033,0,0.0974,0.1098,0.1192,0.1233,0.1364,0.142,0.1491,0.1599,0.1672,0.1784,0.185,0.1928,0.2,0.2036,0.2089,0.2058,0.2184,0.2138,0.2063,0.2056,0.2101,0.2091,0.22,0.22,0.22,0.22,0.2199,0,0.0952,0.1014,0.1182,0.1222,0.1315,0.1412,0.1514,0.1593,0.172,0.1801,0.1887,0.196,0.2043,0.212,0.213,0.2146,0.2224,0.2085,0.2078,0.2119,0.2109,0.211,0.2098,0.2203,0.2203,0.2202,0.2201,0,0.0879,0.0998,0.109,0.1242,0.1297,0.1363,0.1533,0.1602,0.1732,0.1843,0.1889,0.203,0.2122,0.2189,0.2268,0.2205,0.222,0.2203,0.2272,0.2265,0.2053,0.2043,0.2116,0.2114,0.2111,0.2109,0.2107,0,0.086,0.0911,0.1089,0.1153,0.1228,0.135,0.1433,0.1589,0.1663,0.1863,0.1902,0.2057,0.2127,0.2162,0.2228,0.2252,0.2219,0.2211,0.2097,0.2061,0.2047,0.204,0.2033,0.2103,0.2103,0.2102,0.2102,0,0.0788,0.087,0.0948,0.1093,0.1195,0.1304,0.1432,0.1483,0.1653,0.1787,0.1877,0.1935,0.2044,0.2094,0.2147,0.2147,0.22,0.2185,0.2188,0.208,0.2046,0.2033,0.2029,0.2093,0.2094,0.2095,0.2096,0,0.0725,0.0767,0.0896,0.1017,0.1135,0.1223,0.1309,0.1412,0.1512,0.1718,0.1745,0.1896,0.2025,0.2043,0.2083,0.209,0.2038,0.1946,0.196,0.1971,0.1874,0.1806,0.1787,0,0,0,0,0,0.0657,0.0719,0.0819,0.0947,0.106,0.1142,0.1293,0.1378,0.1538,0.1559,0.1651,0.1735,0.1812,0.1893,0.187,0.2015,0.2044,0.1977,0.1943,0.2046,0.2056,0.1954,0,0,0,0,0,0,0.0618,0.0703,0.0782,0.0866,0.0936,0.1055,0.1147,0.1263,0.1287,0.1447,0.1502,0.1619,0.1724,0.1803,0.183,0.1854,0.1796,0.2073,0.2069,0.2041,0.205,0.2057,0.1956,0,0,0,0,0]},{"header":{"parameterUnit":"m.s-1","parameterCategory":2,"la1":30.2991,"la2":30.254,"lo1":-89.0895,"lo2":-89.0444,"dy":0.0017,"dx":0.0017,"nx":28,"ny":28,"refTime":"2024-02-29T03:00:00:Z","depth":"4","parameterNumber":3,"parameterNumberName":"V-component_of_CURRENTS"},"data":[0,0,0,0,0,0,0,0,0,0,0,0,0,0,0,0,0,0,0,0,0,0,0,0,0,0,0,0,0,0,0,0,0,0,0,0,0,0,0,0,0,0,0,0,0,0,0,0,0,0,0,0,0,0,0,0,0,0,0.0144,0.0144,0,0.0105,0.0104,0.0104,0.0076,0.0076,0.0075,0.0075,0.0019,0.0018,0.0017,0,0,0,0,0,0,0,0,0,0,0,0,0,0.0149,0.015,0.0144,0.0144,0.0144,0.0105,0.0104,0.0104,0.0076,0.0076,0.0075,0.0075,0.002,0.0018,0.0016,0,0,0,0,0,0,0,0,0,0,0,0,0,0.0132,0.015,0.0145,0.0126,0.0124,0.0105,0.0104,0.0103,0.0076,0.0076,0.0075,0.0075,0.002,0.0018,0.0016,0.0008,0,0,0.001,0.0009,0,0,0,0,0,0,0,0,0.0133,0.0131,0.0129,0.0127,0.0125,0.0096,0.0085,0.0071,0.0076,0.0093,0.0075,0.0075,0.0044,0.004,0.0032,0.0005,0.0003,0.001,0.0009,0.0008,0.0007,0,0,0,0,0,0,0,0.0134,0.0133,0.0128,0.0128,0.0126,0.0103,0.0101,0.0082,0.0069,0.0092,0.009,0.0087,0.0042,0.0034,0.003,0.0002,0.001,0.0008,0.0007,0.0006,-0.0031,-0.0031,0,0,0,0,0,0,0.0143,0.0134,0.0129,0.0127,0.0129,0.0103,0.0101,0.0105,0.007,0.0065,0.0087,0.0085,0.0038,0.0033,0.0028,0.0027,0.0008,0.0006,0.0005,-0.0031,-0.0031,-0.0031,0,0,0,0,0,0,0.0144,0.0144,0.0131,0.013,0.0127,0.0104,0.0108,0.0104,0.0097,0.0066,0.0061,0.0085,0.0037,0.0031,0.0017,0.0024,0.0005,0.0003,-0.0032,-0.0031,-0.0031,0.0018,0,0,0,0,0,0,0.0144,0.0144,0.0148,0.0131,0.0127,0.0129,0.0108,0.0103,0.0096,0.0094,0.0063,0.0058,0.0037,0.0021,0.0015,0.0021,0.0001,-0.0032,-0.0031,-0.0031,0.0016,0.002,0.0023,0,0,0,0,0,0.0145,0.0161,0.0149,0.0148,0.0135,0.013,0.0126,0.0108,0.0096,0.01,0.0077,0.0059,0.002,0.0019,0.0013,0.0019,-0.0032,-0.0032,-0.0031,0.0015,0.0019,0.0023,0,0,0,0,0,0,0.0166,0.0159,0.0146,0.0159,0.0146,0.0126,0.0128,0.0112,0.0096,0.0095,0.0062,0.0055,0.0044,0.0025,0.0026,0.0009,-0.001,-0.001,0.0027,0.0031,0.0035,0.0045,-0.0,0,0,0,0,0,0.0173,0.0183,0.0166,0.0175,0.0172,0.0148,0.0142,0.0132,0.0116,0.0109,0.0084,0.006,0.0041,0.0032,0.0012,0.0005,-0.0026,0.0003,0.0007,0.001,0.0014,-0.0028,-0.0028,-0.0029,-0.0029,-0.0029,0,0,0.0183,0.018,0.0185,0.018,0.0168,0.0171,0.0145,0.0146,0.0147,0.0105,0.0099,0.0072,0.0041,0.0033,0.0026,0.0018,-0.0006,0.0011,0.0014,0.0016,-0.0028,-0.0028,-0.0028,-0.0029,-0.0029,-0.0029,0,0,0.0214,0.0207,0.0225,0.0219,0.0209,0.0195,0.0197,0.0178,0.0168,0.0159,0.0128,0.0106,0.0079,0.0056,0.0042,0.0053,0.0014,0.0047,0.0075,0.0035,0.0034,0.0034,-0.0005,-0.0009,0.0051,0.0051,0.0051,0,0.0225,0.0243,0.0228,0.0242,0.0239,0.0208,0.0222,0.021,0.0187,0.0179,0.0166,0.0116,0.009,0.0072,0.0077,0.0062,0.0032,0.0063,0.004,0.0038,0.0037,-0.0003,-0.0008,0.0053,0.0053,0.0053,0.0053,0,0.0268,0.0277,0.0288,0.0292,0.0288,0.0297,0.0277,0.0269,0.0249,0.023,0.0207,0.0168,0.0136,0.0125,0.0105,0.0085,0.0065,0.0048,0.003,0.004,-0.0002,-0.0009,0.0057,0.0056,0.0055,0.0055,0,0,0.0301,0.0316,0.0317,0.0324,0.0315,0.0317,0.0319,0.0307,0.0304,0.0275,0.0264,0.0226,0.0196,0.0178,0.0144,0.0112,0.0075,0.0082,0.0078,0.0047,-0.0016,-0.0018,-0.0026,0.0053,0.0052,0.0052,-0.004,0,0.0334,0.0367,0.0365,0.0388,0.04,0.0376,0.0379,0.0364,0.0339,0.0321,0.0275,0.0254,0.0219,0.0204,0.0166,0.0096,0.006,0.0102,-0.0023,-0.0027,-0.0028,-0.0033,0.0049,-0.0046,-0.0047,-0.0048,-0.0049,0,0.037,0.0389,0.0419,0.0431,0.0434,0.0443,0.0433,0.0433,0.04,0.0383,0.0347,0.0306,0.0256,0.0226,0.0112,0.014,0.0069,0.0015,0.0009,-0.0014,-0.0041,-0.0059,-0.0062,-0.0061,-0.006,-0.0059,-0.0058,0,0.0391,0.0421,0.0445,0.045,0.0463,0.0471,0.0471,0.0449,0.0457,0.0418,0.0416,0.0341,0.031,0.0211,0.0101,0.0102,-0.0028,-0.0045,-0.0115,-0.0116,-0.0108,-0.0107,-0.0126,-0.0126,-0.0125,-0.0125,-0.0125,0,0.0416,0.0435,0.0459,0.0473,0.0507,0.05,0.0525,0.0512,0.0505,0.0519,0.0451,0.0441,0.0305,0.0218,0.0109,-0.0022,-0.0027,-0.0112,-0.014,-0.0085,-0.008,-0.0113,-0.011,-0.0129,-0.0128,-0.0127,-0.0127,0,0.0422,0.044,0.0475,0.0503,0.0519,0.0537,0.0575,0.059,0.0578,0.0593,0.0587,0.051,0.0392,0.0251,0.0085,-0.0002,-0.0133,-0.0178,-0.0106,-0.0129,-0.0198,-0.0192,-0.027,-0.0271,-0.0272,-0.0272,-0.0273,0,0.0424,0.0443,0.0497,0.0527,0.0543,0.0581,0.0612,0.0624,0.0647,0.0639,0.0649,0.055,0.048,0.0251,0.009,-0.0129,-0.0156,-0.0226,-0.0215,-0.0193,-0.0213,-0.0206,-0.0199,-0.0274,-0.0274,-0.0274,-0.0274,0,0.0423,0.0443,0.0471,0.0541,0.0586,0.0646,0.069,0.0719,0.0736,0.0732,0.0705,0.0587,0.0453,0.0263,0.009,-0.0065,-0.0184,-0.0235,-0.0234,-0.0224,-0.0199,-0.0217,-0.0209,-0.0277,-0.0277,-0.0276,-0.0276,0,0.0413,0.0434,0.0478,0.0539,0.061,0.0684,0.0715,0.0748,0.0775,0.0771,0.076,0.0617,0.0532,0.0296,0.0139,-0.0019,-0.0061,-0.0107,-0.0114,-0.0113,-0.0042,0.0015,-0.0023,0,0,0,0,0,0.0391,0.0415,0.0473,0.0545,0.0624,0.0672,0.0754,0.0781,0.0811,0.0803,0.0786,0.0665,0.0435,0.0332,0.0174,0.0105,-0.0103,-0.0087,-0.0163,-0.0291,-0.0288,-0.0231,0,0,0,0,0,0,0.0373,0.0413,0.0457,0.0544,0.0599,0.069,0.0751,0.0778,0.0778,0.0784,0.0666,0.0615,0.0388,0.0518,0.0165,0.0116,0.0046,-0.0195,-0.0198,-0.0292,-0.029,-0.0287,-0.0228,0,0,0,0,0]}]]